Location: Bonaustraße
(48.4603°N, 11.9280°E)
Time: 03:26:47
(UTC+01:00)

Envisat - Pass Details

Date: 24 January 2021
Orbit: 764 x 766 km, 98.1° (Epoch: 05 March)

Event Time Altitude Azimuth Distance (km) Brightness Sun altitude
Rises 17:28:07 0° 181° (S) 3,220 6.6 -5.2°
Reaches altitude 10° 17:30:29 10° 186° (S) 2,298 5.9 -5.6°
Maximum altitude 17:35:22 48° 261° (W) 995 4.2 -6.4°
Drops below altitude 10° 17:40:19 10° 336° (NNW) 2,315 5.5 -7.1°
Sets 17:42:43 0° 342° (NNW) 3,246 6.2 -7.5°
